Time,TemperatureF,DewpointF,PressureIn,WindDirection,WindDirectionDegrees,WindSpeedMPH,WindSpeedGustMPH,Humidity,HourlyPrecipIn,Conditions,Clouds,dailyrainin,SoftwareType,DateUTC
2013-04-04 00:02:00,38.2,29.6,30.28,SE,135,0.0,0.4,71,0.00,,,0.00,WUHU216HW,2013-04-03 23:02:00,
2013-04-04 00:07:00,38.2,29.6,30.28,SE,135,0.4,0.4,71,0.00,,,0.00,WUHU216HW,2013-04-03 23:07:00,
2013-04-04 00:12:00,38.2,29.6,30.28,SE,135,0.0,0.4,71,0.00,,,0.00,WUHU216HW,2013-04-03 23:12:00,
2013-04-04 00:17:00,38.0,29.4,30.28,SE,135,0.9,0.9,71,0.00,,,0.00,WUHU216HW,2013-04-03 23:17:00,
2013-04-04 00:22:00,37.8,29.3,30.28,ESE,113,0.0,0.9,71,0.00,,,0.00,WUHU216HW,2013-04-03 23:22:00,
2013-04-04 00:27:00,37.6,29.1,30.28,ESE,113,0.0,0.0,71,0.00,,,0.00,WUHU216HW,2013-04-03 23:27:00,
2013-04-04 00:32:00,37.3,28.8,30.28,ESE,113,0.0,0.0,71,0.00,,,0.00,WUHU216HW,2013-04-03 23:32:00,
2013-04-04 00:37:00,37.1,28.6,30.28,ESE,113,0.0,0.2,71,0.00,,,0.00,WUHU216HW,2013-04-03 23:37:00,
2013-04-04 00:42:00,36.9,28.7,30.28,SE,135,0.0,0.2,72,0.00,,,0.00,WUHU216HW,2013-04-03 23:42:00,
2013-04-04 00:47:00,36.9,28.7,30.28,SE,135,0.4,0.4,72,0.00,,,0.00,WUHU216HW,2013-04-03 23:47:00,
2013-04-04 00:52:00,37.4,29.6,30.28,SE,135,0.0,0.4,73,0.00,,,0.00,WUHU216HW,2013-04-03 23:52:00,
2013-04-04 00:57:00,37.8,30.0,30.28,SE,135,0.0,0.2,73,0.00,,,0.00,WUHU216HW,2013-04-03 23:57:00,
2013-04-04 01:02:00,37.8,30.0,30.28,SE,135,0.4,0.4,73,0.00,,,0.00,WUHU216HW,2013-04-04 00:02:00,
2013-04-04 01:07:00,38.0,29.8,30.28,SE,135,0.7,0.7,72,0.00,,,0.00,WUHU216HW,2013-04-04 00:07:00,
2013-04-04 01:12:00,38.2,30.6,30.28,ENE,68,0.4,0.7,74,0.00,,,0.00,WUHU216HW,2013-04-04 00:12:00,
2013-04-04 01:17:00,38.2,30.2,30.28,North,0,0.4,0.7,73,0.00,,,0.00,WUHU216HW,2013-04-04 00:17:00,
2013-04-04 01:23:00,37.8,30.0,30.27,North,0,0.4,0.4,73,0.00,,,0.00,WUHU216HW,2013-04-04 00:23:00,
2013-04-04 01:28:00,37.4,29.6,30.27,North,0,0.4,0.4,73,0.00,,,0.00,WUHU216HW,2013-04-04 00:28:00,
2013-04-04 01:33:00,37.3,29.4,30.27,NNW,338,0.0,0.4,73,0.00,,,0.00,WUHU216HW,2013-04-04 00:33:00,
2013-04-04 01:38:00,37.1,29.3,30.27,NNW,338,0.0,0.4,73,0.00,,,0.00,WUHU216HW,2013-04-04 00:38:00,
2013-04-04 01:43:00,36.9,29.1,30.27,ENE,68,0.0,0.0,73,0.00,,,0.00,WUHU216HW,2013-04-04 00:43:00,
2013-04-04 01:48:00,36.7,28.9,30.27,ENE,68,0.0,0.0,73,0.00,,,0.00,WUHU216HW,2013-04-04 00:48:00,
2013-04-04 01:53:00,36.4,28.5,30.27,NNE,23,0.0,0.0,73,0.00,,,0.00,WUHU216HW,2013-04-04 00:53:00,
2013-04-04 01:58:00,36.2,28.6,30.27,NNW,338,0.2,0.2,74,0.00,,,0.00,WUHU216HW,2013-04-04 00:58:00,
2013-04-04 02:03:00,36.4,29.2,30.27,NW,315,0.4,0.4,75,0.00,,,0.00,WUHU216HW,2013-04-04 01:03:00,
2013-04-04 02:08:00,36.5,30.0,30.27,NNW,338,0.2,0.4,77,0.00,,,0.00,WUHU216HW,2013-04-04 01:08:00,
2013-04-04 02:13:00,36.5,29.7,30.26,WNW,293,0.4,1.1,76,0.00,,,0.00,WUHU216HW,2013-04-04 01:13:00,
2013-04-04 02:18:00,36.5,29.7,30.26,WNW,293,0.0,1.1,76,0.00,,,0.00,WUHU216HW,2013-04-04 01:18:00,
2013-04-04 02:23:00,36.4,29.5,30.26,SW,225,0.4,0.4,76,0.00,,,0.00,WUHU216HW,2013-04-04 01:23:00,
2013-04-04 02:28:00,36.4,29.5,30.26,West,270,1.1,1.1,76,0.00,,,0.00,WUHU216HW,2013-04-04 01:28:00,
2013-04-04 02:33:00,36.2,29.4,30.26,West,270,0.4,1.1,76,0.00,,,0.00,WUHU216HW,2013-04-04 01:33:00,
2013-04-04 02:38:00,36.4,29.5,30.26,SSW,203,0.7,1.1,76,0.00,,,0.00,WUHU216HW,2013-04-04 01:38:00,
2013-04-04 02:43:00,36.5,29.7,30.26,NNW,338,0.7,0.9,76,0.00,,,0.00,WUHU216HW,2013-04-04 01:43:00,
2013-04-04 02:48:00,36.5,29.7,30.26,NNE,23,1.1,1.1,76,0.00,,,0.00,WUHU216HW,2013-04-04 01:48:00,
2013-04-04 02:53:00,36.5,29.7,30.26,NW,315,0.2,1.1,76,0.00,,,0.00,WUHU216HW,2013-04-04 01:53:00,
2013-04-04 02:58:00,36.5,29.7,30.26,North,0,1.1,1.1,76,0.00,,,0.00,WUHU216HW,2013-04-04 01:58:00,
2013-04-04 03:03:00,36.5,30.0,30.26,North,0,0.2,1.1,77,0.00,,,0.00,WUHU216HW,2013-04-04 02:03:00,
2013-04-04 03:08:00,36.5,29.7,30.26,North,0,0.4,1.1,76,0.00,,,0.00,WUHU216HW,2013-04-04 02:08:00,
2013-04-04 03:13:00,36.4,29.2,30.26,WNW,293,0.4,0.7,75,0.00,,,0.00,WUHU216HW,2013-04-04 02:13:00,
2013-04-04 03:18:00,36.2,29.0,30.26,NNW,338,0.2,0.4,75,0.00,,,0.00,WUHU216HW,2013-04-04 02:18:00,
2013-04-04 03:23:00,36.2,28.6,30.26,West,270,0.4,0.4,74,0.00,,,0.00,WUHU216HW,2013-04-04 02:23:00,
2013-04-04 03:28:00,36.0,28.4,30.26,West,270,0.4,0.4,74,0.00,,,0.00,WUHU216HW,2013-04-04 02:28:00,
2013-04-04 03:33:00,35.8,28.3,30.26,West,270,0.0,0.4,74,0.00,,,0.00,WUHU216HW,2013-04-04 02:33:00,
2013-04-04 03:38:00,35.6,28.4,30.26,West,270,0.0,0.4,75,0.00,,,0.00,WUHU216HW,2013-04-04 02:38:00,
2013-04-04 03:43:00,35.6,28.4,30.26,SSW,203,0.2,0.2,75,0.00,,,0.00,WUHU216HW,2013-04-04 02:43:00,
2013-04-04 03:48:00,35.6,28.1,30.26,SSE,158,0.7,0.7,74,0.00,,,0.00,WUHU216HW,2013-04-04 02:48:00,
2013-04-04 03:53:00,35.6,28.1,30.26,SSE,158,0.4,0.7,74,0.00,,,0.00,WUHU216HW,2013-04-04 02:53:00,
2013-04-04 03:58:00,35.5,27.9,30.26,SSE,158,0.0,0.4,74,0.00,,,0.00,WUHU216HW,2013-04-04 02:58:00,
2013-04-04 04:03:00,35.3,27.7,30.26,SSE,158,0.0,0.4,74,0.00,,,0.00,WUHU216HW,2013-04-04 03:03:00,
2013-04-04 04:08:00,35.1,27.3,30.26,SSE,158,0.2,0.2,73,0.00,,,0.00,WUHU216HW,2013-04-04 03:08:00,
2013-04-04 04:13:00,34.9,27.4,30.26,SSE,158,0.0,0.2,74,0.00,,,0.00,WUHU216HW,2013-04-04 03:13:00,
2013-04-04 04:18:00,34.9,27.4,30.25,SSE,158,0.0,0.2,74,0.00,,,0.00,WUHU216HW,2013-04-04 03:18:00,
2013-04-04 04:23:00,34.9,27.4,30.26,SSE,158,0.7,0.7,74,0.00,,,0.00,WUHU216HW,2013-04-04 03:23:00,
2013-04-04 04:28:00,35.1,27.9,30.26,ESE,113,0.4,0.7,75,0.00,,,0.00,WUHU216HW,2013-04-04 03:28:00,
2013-04-04 04:33:00,35.1,27.9,30.26,ESE,113,0.0,0.7,75,0.00,,,0.00,WUHU216HW,2013-04-04 03:33:00,
2013-04-04 04:38:00,35.1,27.5,30.26,ESE,113,0.2,0.4,74,0.00,,,0.00,WUHU216HW,2013-04-04 03:38:00,
2013-04-04 04:43:00,35.1,27.9,30.26,ESE,113,0.7,0.7,75,0.00,,,0.00,WUHU216HW,2013-04-04 03:43:00,
2013-04-04 04:48:00,35.1,27.9,30.25,NW,315,0.2,0.7,75,0.00,,,0.00,WUHU216HW,2013-04-04 03:48:00,
2013-04-04 04:53:00,35.3,28.5,30.26,NW,315,0.9,0.9,76,0.00,,,0.00,WUHU216HW,2013-04-04 03:53:00,
2013-04-04 04:58:00,35.3,28.1,30.26,NNE,23,0.2,0.9,75,0.00,,,0.00,WUHU216HW,2013-04-04 03:58:00,
2013-04-04 05:03:00,35.3,28.1,30.26,WNW,293,0.2,0.9,75,0.00,,,0.00,WUHU216HW,2013-04-04 04:03:00,
2013-04-04 05:08:00,35.5,28.3,30.26,West,270,0.4,0.4,75,0.00,,,0.00,WUHU216HW,2013-04-04 04:08:00,
2013-04-04 05:13:00,35.6,28.4,30.26,WSW,248,0.0,0.4,75,0.00,,,0.00,WUHU216HW,2013-04-04 04:13:00,
2013-04-04 05:18:00,35.6,28.4,30.26,WNW,293,0.0,0.4,75,0.00,,,0.00,WUHU216HW,2013-04-04 04:18:00,
2013-04-04 05:23:00,35.6,28.4,30.26,WNW,293,0.0,0.4,75,0.00,,,0.00,WUHU216HW,2013-04-04 04:23:00,
2013-04-04 05:28:00,35.6,28.4,30.26,SW,225,0.0,0.0,75,0.00,,,0.00,WUHU216HW,2013-04-04 04:28:00,
2013-04-04 05:33:00,35.6,28.1,30.26,SSE,158,0.2,0.2,74,0.00,,,0.00,WUHU216HW,2013-04-04 04:33:00,
2013-04-04 05:38:00,35.8,28.3,30.26,SSE,158,0.0,0.2,74,0.00,,,0.00,WUHU216HW,2013-04-04 04:38:00,
2013-04-04 05:43:00,35.6,28.1,30.26,West,270,0.4,0.4,74,0.00,,,0.00,WUHU216HW,2013-04-04 04:43:00,
2013-04-04 05:49:00,35.6,28.1,30.26,SW,225,0.0,0.4,74,0.00,,,0.00,WUHU216HW,2013-04-04 04:49:00,
2013-04-04 05:54:00,35.6,28.1,30.26,SW,225,0.0,0.0,74,0.00,,,0.00,WUHU216HW,2013-04-04 04:54:00,
2013-04-04 05:59:00,35.6,28.1,30.26,WSW,248,0.0,0.0,74,0.00,,,0.00,WUHU216HW,2013-04-04 04:59:00,
2013-04-04 06:04:00,36.0,28.4,30.25,South,180,0.9,0.9,74,0.00,,,0.00,WUHU216HW,2013-04-04 05:04:00,
2013-04-04 06:09:00,36.0,28.2,30.26,WNW,293,1.1,1.1,73,0.00,,,0.00,WUHU216HW,2013-04-04 05:09:00,
2013-04-04 06:14:00,36.2,28.4,30.26,NNW,338,0.0,1.1,73,0.00,,,0.00,WUHU216HW,2013-04-04 05:14:00,
2013-04-04 06:19:00,36.4,28.5,30.26,NW,315,0.0,1.1,73,0.00,,,0.00,WUHU216HW,2013-04-04 05:19:00,
2013-04-04 06:24:00,36.4,28.5,30.26,SW,225,0.0,0.0,73,0.00,,,0.00,WUHU216HW,2013-04-04 05:24:00,
2013-04-04 06:29:00,36.4,28.8,30.26,East,90,0.0,0.7,74,0.00,,,0.00,WUHU216HW,2013-04-04 05:29:00,
2013-04-04 06:34:00,36.4,28.8,30.26,East,90,0.4,0.7,74,0.00,,,0.00,WUHU216HW,2013-04-04 05:34:00,
2013-04-04 06:39:00,36.5,29.3,30.26,NNE,23,0.4,0.4,75,0.00,,,0.00,WUHU216HW,2013-04-04 05:39:00,
2013-04-04 06:44:00,36.4,28.5,30.26,WSW,248,0.2,1.6,73,0.00,,,0.00,WUHU216HW,2013-04-04 05:44:00,
2013-04-04 06:49:00,36.4,28.5,30.26,NW,315,0.2,1.6,73,0.00,,,0.00,WUHU216HW,2013-04-04 05:49:00,
2013-04-04 06:54:00,36.4,28.5,30.26,NNW,338,0.0,0.2,73,0.00,,,0.00,WUHU216HW,2013-04-04 05:54:00,
2013-04-04 07:00:00,36.4,28.8,30.26,WSW,248,0.2,0.9,74,0.00,,,0.00,WUHU216HW,2013-04-04 06:00:00,
2013-04-04 07:05:00,36.4,28.8,30.26,SW,225,0.0,0.9,74,0.00,,,0.00,WUHU216HW,2013-04-04 06:05:00,
2013-04-04 07:10:00,36.4,28.8,30.26,SSW,203,0.2,0.2,74,0.00,,,0.00,WUHU216HW,2013-04-04 06:10:00,
2013-04-04 07:15:00,36.4,28.8,30.26,NNW,338,0.4,0.9,74,0.00,,,0.00,WUHU216HW,2013-04-04 06:15:00,
2013-04-04 07:20:00,36.4,28.8,30.26,SE,135,1.3,1.3,74,0.00,,,0.00,WUHU216HW,2013-04-04 06:20:00,
2013-04-04 07:25:00,36.4,28.8,30.26,SSE,158,0.2,1.3,74,0.00,,,0.00,WUHU216HW,2013-04-04 06:25:00,
2013-04-04 07:30:00,36.4,28.8,30.26,SE,135,0.4,1.3,74,0.00,,,0.00,WUHU216HW,2013-04-04 06:30:00,
2013-04-04 07:35:00,36.7,29.5,30.27,NW,315,0.0,0.7,75,0.00,,,0.00,WUHU216HW,2013-04-04 06:35:00,
2013-04-04 07:40:00,36.7,29.5,30.27,NW,315,1.1,1.1,75,0.00,,,0.00,WUHU216HW,2013-04-04 06:40:00,
2013-04-04 07:45:00,37.1,29.9,30.27,WNW,293,1.3,1.3,75,0.00,,,0.00,WUHU216HW,2013-04-04 06:45:00,
2013-04-04 07:50:00,37.1,29.9,30.27,WNW,293,1.1,1.3,75,0.00,,,0.00,WUHU216HW,2013-04-04 06:50:00,
2013-04-04 07:55:00,37.1,29.5,30.27,West,270,0.7,1.3,74,0.00,,,0.00,WUHU216HW,2013-04-04 06:55:00,
2013-04-04 08:00:00,37.1,29.9,30.27,West,270,0.9,1.3,75,0.00,,,0.00,WUHU216HW,2013-04-04 07:00:00,
2013-04-04 08:05:00,37.1,29.9,30.27,NW,315,0.9,1.3,75,0.00,,,0.00,WUHU216HW,2013-04-04 07:05:00,
2013-04-04 08:10:00,37.1,29.9,30.27,WNW,293,0.4,0.9,75,0.00,,,0.00,WUHU216HW,2013-04-04 07:10:00,
2013-04-04 08:15:00,37.3,30.1,30.27,NW,315,0.7,0.9,75,0.00,,,0.00,WUHU216HW,2013-04-04 07:15:00,
2013-04-04 08:20:00,37.4,30.2,30.26,WSW,248,0.4,0.7,75,0.00,,,0.00,WUHU216HW,2013-04-04 07:20:00,
2013-04-04 08:25:00,37.6,30.4,30.27,SW,225,0.9,0.9,75,0.00,,,0.00,WUHU216HW,2013-04-04 07:25:00,
2013-04-04 08:30:00,38.3,31.1,30.27,West,270,1.1,1.1,75,0.00,,,0.00,WUHU216HW,2013-04-04 07:30:00,
2013-04-04 08:35:00,39.2,31.6,30.27,WNW,293,1.1,1.1,74,0.00,,,0.00,WUHU216HW,2013-04-04 07:35:00,
2013-04-04 08:40:00,42.1,33.5,30.27,SW,225,0.7,1.1,71,0.00,,,0.00,WUHU216HW,2013-04-04 07:40:00,
2013-04-04 08:45:00,42.3,33.3,30.27,ESE,113,0.7,1.1,70,0.00,,,0.00,WUHU216HW,2013-04-04 07:45:00,
2013-04-04 08:50:00,41.8,32.0,30.27,SE,135,2.0,2.0,68,0.00,,,0.00,WUHU216HW,2013-04-04 07:50:00,
2013-04-04 08:55:00,41.8,32.0,30.27,SSE,158,1.6,2.0,68,0.00,,,0.00,WUHU216HW,2013-04-04 07:55:00,
2013-04-04 09:00:00,41.6,31.4,30.27,East,90,0.7,2.0,67,0.00,,,0.00,WUHU216HW,2013-04-04 08:00:00,
2013-04-04 09:05:00,41.2,31.5,30.27,ENE,68,0.4,0.7,68,0.00,,,0.00,WUHU216HW,2013-04-04 08:05:00,
2013-04-04 09:10:00,40.7,31.3,30.27,East,90,0.2,0.7,69,0.00,,,0.00,WUHU216HW,2013-04-04 08:10:00,
2013-04-04 09:15:00,40.0,31.3,30.27,SSE,158,0.0,0.4,71,0.00,,,0.00,WUHU216HW,2013-04-04 08:15:00,
2013-04-04 09:20:00,40.0,31.3,30.27,SE,135,0.2,0.2,71,0.00,,,0.00,WUHU216HW,2013-04-04 08:20:00,
2013-04-04 09:25:00,39.8,31.2,30.27,NW,315,1.6,1.6,71,0.00,,,0.00,WUHU216HW,2013-04-04 08:25:00,
2013-04-04 09:30:00,39.4,31.2,30.27,ESE,113,1.3,1.6,72,0.00,,,0.00,WUHU216HW,2013-04-04 08:30:00,
2013-04-04 09:35:00,39.6,31.3,30.27,North,0,0.9,1.3,72,0.00,,,0.00,WUHU216HW,2013-04-04 08:35:00,
2013-04-04 09:40:00,39.8,31.8,30.27,South,180,1.1,1.3,73,0.00,,,0.00,WUHU216HW,2013-04-04 08:40:00,
2013-04-04 09:45:00,41.9,33.3,30.27,East,90,0.4,1.8,71,0.00,,,0.00,WUHU216HW,2013-04-04 08:45:00,
2013-04-04 09:50:00,42.8,33.8,30.27,SE,135,1.3,1.8,70,0.00,,,0.00,WUHU216HW,2013-04-04 08:50:00,
2013-04-04 09:55:00,43.9,34.0,30.27,NNE,23,1.1,1.3,68,0.00,,,0.00,WUHU216HW,2013-04-04 08:55:00,
2013-04-04 10:00:00,44.1,33.5,30.27,ESE,113,0.9,1.3,66,0.00,,,0.00,WUHU216HW,2013-04-04 09:00:00,
2013-04-04 10:05:00,44.6,32.9,30.27,ENE,68,1.1,1.3,63,0.00,,,0.00,WUHU216HW,2013-04-04 09:05:00,
2013-04-04 10:10:00,44.3,32.9,30.27,East,90,2.0,2.0,64,0.00,,,0.00,WUHU216HW,2013-04-04 09:10:00,
2013-04-04 10:15:00,42.3,32.5,30.27,ESE,113,1.1,2.0,68,0.00,,,0.00,WUHU216HW,2013-04-04 09:15:00,
2013-04-04 10:20:00,42.5,32.7,30.27,West,270,1.6,2.0,68,0.00,,,0.00,WUHU216HW,2013-04-04 09:20:00,
2013-04-04 10:26:00,42.5,32.7,30.27,ENE,68,0.9,1.6,68,0.00,,,0.00,WUHU216HW,2013-04-04 09:26:00,
2013-04-04 10:31:00,42.1,32.0,30.27,ESE,113,1.8,1.8,67,0.00,,,0.00,WUHU216HW,2013-04-04 09:31:00,
2013-04-04 10:36:00,41.9,31.8,30.26,East,90,1.3,1.8,67,0.00,,,0.00,WUHU216HW,2013-04-04 09:36:00,
2013-04-04 10:41:00,42.1,32.3,30.26,East,90,0.4,1.8,68,0.00,,,0.00,WUHU216HW,2013-04-04 09:41:00,
2013-04-04 10:46:00,41.8,32.0,30.26,West,270,0.4,1.3,68,0.00,,,0.00,WUHU216HW,2013-04-04 09:46:00,
2013-04-04 10:51:00,41.6,32.2,30.26,NNW,338,0.9,1.1,69,0.00,,,0.00,WUHU216HW,2013-04-04 09:51:00,
2013-04-04 10:56:00,41.8,32.4,30.26,West,270,1.1,1.1,69,0.00,,,0.00,WUHU216HW,2013-04-04 09:56:00,
2013-04-04 11:01:00,42.3,31.8,30.27,SSE,158,1.1,1.1,66,0.00,,,0.00,WUHU216HW,2013-04-04 10:01:00,
2013-04-04 11:06:00,42.1,31.1,30.26,East,90,0.4,1.1,65,0.00,,,0.00,WUHU216HW,2013-04-04 10:06:00,
2013-04-04 11:11:00,42.8,32.2,30.26,SE,135,1.3,1.3,66,0.00,,,0.00,WUHU216HW,2013-04-04 10:11:00,
2013-04-04 11:16:00,43.4,33.1,30.26,NW,315,1.1,2.5,67,0.00,,,0.00,WUHU216HW,2013-04-04 10:16:00,
2013-04-04 11:21:00,42.8,32.7,30.26,ESE,113,2.7,2.7,67,0.00,,,0.00,WUHU216HW,2013-04-04 10:21:00,
2013-04-04 11:26:00,42.5,32.3,30.27,SSW,203,1.1,2.7,67,0.00,,,0.00,WUHU216HW,2013-04-04 10:26:00,
2013-04-04 11:32:00,42.1,32.3,30.26,ESE,113,0.7,2.7,68,0.00,,,0.00,WUHU216HW,2013-04-04 10:32:00,
2013-04-04 11:37:00,42.8,32.7,30.26,NE,45,0.9,0.9,67,0.00,,,0.00,WUHU216HW,2013-04-04 10:37:00,
2013-04-04 11:42:00,43.4,32.0,30.27,ENE,68,1.1,1.1,64,0.00,,,0.00,WUHU216HW,2013-04-04 10:42:00,
2013-04-04 11:47:00,43.2,33.0,30.26,ENE,68,0.7,2.0,67,0.00,,,0.00,WUHU216HW,2013-04-04 10:47:00,
2013-04-04 11:52:00,43.7,33.1,30.26,NNE,23,0.2,2.0,66,0.00,,,0.00,WUHU216HW,2013-04-04 10:52:00,
2013-04-04 11:57:00,43.6,32.1,30.26,West,270,1.1,1.1,64,0.00,,,0.00,WUHU216HW,2013-04-04 10:57:00,
2013-04-04 12:02:00,42.8,30.2,30.26,ENE,68,1.6,2.0,61,0.00,,,0.00,WUHU216HW,2013-04-04 11:02:00,
2013-04-04 12:07:00,42.8,30.7,30.27,East,90,2.0,2.0,62,0.00,,,0.00,WUHU216HW,2013-04-04 11:07:00,
2013-04-04 12:12:00,42.8,30.7,30.26,SE,135,1.6,2.0,62,0.00,,,0.00,WUHU216HW,2013-04-04 11:12:00,
2013-04-04 12:17:00,42.8,30.7,30.26,ESE,113,1.1,2.0,62,0.00,,,0.00,WUHU216HW,2013-04-04 11:17:00,
2013-04-04 12:22:00,43.0,30.4,30.26,SE,135,2.5,2.5,61,0.00,,,0.00,WUHU216HW,2013-04-04 11:22:00,
2013-04-04 12:27:00,43.4,30.0,30.27,ESE,113,1.8,2.5,59,0.00,,,0.00,WUHU216HW,2013-04-04 11:27:00,
2013-04-04 12:32:00,43.4,29.5,30.26,ESE,113,3.1,3.1,58,0.00,,,0.00,WUHU216HW,2013-04-04 11:32:00,
2013-04-04 12:37:00,43.4,30.0,30.26,SE,135,1.1,3.1,59,0.00,,,0.00,WUHU216HW,2013-04-04 11:37:00,
2013-04-04 12:42:00,44.5,29.3,30.26,ESE,113,2.0,3.1,55,0.00,,,0.00,WUHU216HW,2013-04-04 11:42:00,
2013-04-04 12:47:00,44.5,29.7,30.27,SE,135,0.4,2.0,56,0.00,,,0.00,WUHU216HW,2013-04-04 11:47:00,
2013-04-04 12:52:00,44.3,29.1,30.27,NE,45,2.9,2.9,55,0.00,,,0.00,WUHU216HW,2013-04-04 11:52:00,
2013-04-04 12:57:00,44.3,29.5,30.26,NNW,338,0.4,2.9,56,0.00,,,0.00,WUHU216HW,2013-04-04 11:57:00,
2013-04-04 13:02:00,44.5,28.8,30.26,ENE,68,1.1,1.1,54,0.00,,,0.00,WUHU216HW,2013-04-04 12:02:00,
2013-04-04 13:07:00,44.6,29.0,30.26,ESE,113,1.8,1.8,54,0.00,,,0.00,WUHU216HW,2013-04-04 12:07:00,
2013-04-04 13:12:00,45.4,29.2,30.26,NE,45,2.5,3.4,53,0.00,,,0.00,WUHU216HW,2013-04-04 12:12:00,
2013-04-04 13:17:00,45.5,29.8,30.26,East,90,2.5,3.4,54,0.00,,,0.00,WUHU216HW,2013-04-04 12:17:00,
2013-04-04 13:22:00,45.7,30.4,30.26,ESE,113,2.5,2.5,55,0.00,,,0.00,WUHU216HW,2013-04-04 12:22:00,
2013-04-04 13:27:00,45.7,29.1,30.26,ESE,113,4.7,4.7,52,0.00,,,0.00,WUHU216HW,2013-04-04 12:27:00,
2013-04-04 13:32:00,45.4,29.2,30.26,NW,315,0.7,4.7,53,0.00,,,0.00,WUHU216HW,2013-04-04 12:32:00,
2013-04-04 13:37:00,45.2,29.0,30.26,East,90,0.9,4.7,53,0.00,,,0.00,WUHU216HW,2013-04-04 12:37:00,
2013-04-04 13:42:00,45.0,29.4,30.26,East,90,0.7,1.8,54,0.00,,,0.00,WUHU216HW,2013-04-04 12:42:00,
2013-04-04 13:47:00,45.0,29.8,30.26,NE,45,0.4,1.8,55,0.00,,,0.00,WUHU216HW,2013-04-04 12:47:00,
2013-04-04 13:52:00,45.0,29.8,30.26,ESE,113,2.0,2.0,55,0.00,,,0.00,WUHU216HW,2013-04-04 12:52:00,
2013-04-04 13:57:00,45.0,29.4,30.26,ESE,113,1.6,2.2,54,0.00,,,0.00,WUHU216HW,2013-04-04 12:57:00,
2013-04-04 14:02:00,45.0,28.9,30.26,SE,135,1.1,2.2,53,0.00,,,0.00,WUHU216HW,2013-04-04 13:02:00,
2013-04-04 14:07:00,45.2,28.5,30.26,ESE,113,1.8,1.8,52,0.00,,,0.00,WUHU216HW,2013-04-04 13:07:00,
2013-04-04 14:12:00,45.0,28.9,30.26,ESE,113,0.7,1.8,53,0.00,,,0.00,WUHU216HW,2013-04-04 13:12:00,
2013-04-04 14:17:00,44.8,28.7,30.26,ESE,113,1.1,1.8,53,0.00,,,0.00,WUHU216HW,2013-04-04 13:17:00,
2013-04-04 14:22:00,44.6,28.5,30.25,East,90,4.0,4.0,53,0.00,,,0.00,WUHU216HW,2013-04-04 13:22:00,
2013-04-04 14:27:00,45.9,28.8,30.25,SE,135,4.0,4.0,51,0.00,,,0.00,WUHU216HW,2013-04-04 13:27:00,
2013-04-04 14:32:00,46.1,28.9,30.25,East,90,0.7,4.0,51,0.00,,,0.00,WUHU216HW,2013-04-04 13:32:00,
2013-04-04 14:37:00,45.9,28.4,30.25,ESE,113,2.5,4.0,50,0.00,,,0.00,WUHU216HW,2013-04-04 13:37:00,
2013-04-04 14:42:00,45.7,28.6,30.25,NE,45,0.7,2.5,51,0.00,,,0.00,WUHU216HW,2013-04-04 13:42:00,
2013-04-04 14:47:00,45.5,28.4,30.25,East,90,1.1,1.1,51,0.00,,,0.00,WUHU216HW,2013-04-04 13:47:00,
2013-04-04 14:52:00,45.5,28.9,30.25,SSE,158,1.1,1.1,52,0.00,,,0.00,WUHU216HW,2013-04-04 13:52:00,
2013-04-04 14:58:00,45.7,29.1,30.25,ESE,113,1.6,1.6,52,0.00,,,0.00,WUHU216HW,2013-04-04 13:58:00,
2013-04-04 15:03:00,45.7,29.5,30.25,ENE,68,1.1,1.6,53,0.00,,,0.00,WUHU216HW,2013-04-04 14:03:00,
2013-04-04 15:08:00,46.3,29.5,30.24,East,90,4.9,4.9,52,0.00,,,0.00,WUHU216HW,2013-04-04 14:08:00,
2013-04-04 15:13:00,46.8,30.1,30.24,ENE,68,0.2,4.9,52,0.00,,,0.00,WUHU216HW,2013-04-04 14:13:00,
2013-04-04 15:18:00,46.8,29.6,30.24,NE,45,1.8,1.8,51,0.00,,,0.00,WUHU216HW,2013-04-04 14:18:00,
2013-04-04 15:23:00,46.4,28.8,30.24,SW,225,2.7,2.7,50,0.00,,,0.00,WUHU216HW,2013-04-04 14:23:00,
2013-04-04 15:28:00,46.1,28.9,30.23,SE,135,2.0,2.7,51,0.00,,,0.00,WUHU216HW,2013-04-04 14:28:00,
2013-04-04 15:33:00,46.3,28.6,30.23,ENE,68,1.1,2.7,50,0.00,,,0.00,WUHU216HW,2013-04-04 14:33:00,
2013-04-04 15:38:00,47.2,29.4,30.23,ESE,113,2.0,2.0,50,0.00,,,0.00,WUHU216HW,2013-04-04 14:38:00,
2013-04-04 15:43:00,47.2,28.9,30.23,East,90,1.6,2.0,49,0.00,,,0.00,WUHU216HW,2013-04-04 14:43:00,
2013-04-04 15:48:00,46.8,29.2,30.23,ENE,68,1.8,2.0,50,0.00,,,0.00,WUHU216HW,2013-04-04 14:48:00,
2013-04-04 15:53:00,46.3,29.5,30.23,ESE,113,0.9,4.7,52,0.00,,,0.00,WUHU216HW,2013-04-04 14:53:00,
2013-04-04 15:58:00,46.1,28.9,30.23,West,270,0.4,4.7,51,0.00,,,0.00,WUHU216HW,2013-04-04 14:58:00,
2013-04-04 16:03:00,46.1,29.3,30.23,SSE,158,1.1,1.1,52,0.00,,,0.00,WUHU216HW,2013-04-04 15:03:00,
2013-04-04 16:08:00,46.4,28.8,30.23,ESE,113,1.1,1.1,50,0.00,,,0.00,WUHU216HW,2013-04-04 15:08:00,
2013-04-04 16:13:00,46.4,28.8,30.23,ESE,113,1.1,1.1,50,0.00,,,0.00,WUHU216HW,2013-04-04 15:13:00,
2013-04-04 16:18:00,46.6,28.5,30.22,ESE,113,1.3,1.3,49,0.00,,,0.00,WUHU216HW,2013-04-04 15:18:00,
2013-04-04 16:23:00,47.2,28.9,30.22,SE,135,1.3,1.3,49,0.00,,,0.00,WUHU216HW,2013-04-04 15:23:00,
2013-04-04 16:28:00,47.5,29.3,30.23,ENE,68,0.9,1.6,49,0.00,,,0.00,WUHU216HW,2013-04-04 15:28:00,
2013-04-04 16:33:00,47.2,28.9,30.22,East,90,1.8,1.8,49,0.00,,,0.00,WUHU216HW,2013-04-04 15:33:00,
2013-04-04 16:38:00,46.6,29.0,30.22,NE,45,1.3,1.8,50,0.00,,,0.00,WUHU216HW,2013-04-04 15:38:00,
2013-04-04 16:43:00,46.8,30.1,30.22,SE,135,1.1,1.8,52,0.00,,,0.00,WUHU216HW,2013-04-04 15:43:00,
2013-04-04 16:48:00,47.3,30.5,30.22,NE,45,1.1,1.8,52,0.00,,,0.00,WUHU216HW,2013-04-04 15:48:00,
2013-04-04 16:53:00,47.2,29.9,30.22,ESE,113,1.3,1.3,51,0.00,,,0.00,WUHU216HW,2013-04-04 15:53:00,
2013-04-04 16:58:00,46.6,29.4,30.22,South,180,0.9,1.3,51,0.00,,,0.00,WUHU216HW,2013-04-04 15:58:00,
2013-04-04 17:03:00,46.4,29.7,30.22,SSW,203,0.2,0.9,52,0.00,,,0.00,WUHU216HW,2013-04-04 16:03:00,
2013-04-04 17:08:00,46.1,29.8,30.22,SSE,158,0.0,0.9,53,0.00,,,0.00,WUHU216HW,2013-04-04 16:08:00,
2013-04-04 17:13:00,45.5,29.8,30.22,East,90,1.1,1.8,54,0.00,,,0.00,WUHU216HW,2013-04-04 16:13:00,
2013-04-04 17:18:00,45.4,29.6,30.22,SSW,203,0.2,1.8,54,0.00,,,0.00,WUHU216HW,2013-04-04 16:18:00,
2013-04-04 17:23:00,45.4,29.6,30.22,ESE,113,0.2,1.1,54,0.00,,,0.00,WUHU216HW,2013-04-04 16:23:00,
2013-04-04 17:28:00,45.4,30.5,30.22,NE,45,0.4,1.6,56,0.00,,,0.00,WUHU216HW,2013-04-04 16:28:00,
2013-04-04 17:33:00,45.4,30.5,30.22,ENE,68,0.0,1.6,56,0.00,,,0.00,WUHU216HW,2013-04-04 16:33:00,
2013-04-04 17:38:00,45.0,30.7,30.22,ENE,68,0.4,0.4,57,0.00,,,0.00,WUHU216HW,2013-04-04 16:38:00,
2013-04-04 17:43:00,45.2,30.8,30.22,ESE,113,0.4,0.4,57,0.00,,,0.00,WUHU216HW,2013-04-04 16:43:00,
2013-04-04 17:48:00,45.4,30.5,30.22,ESE,113,0.4,0.4,56,0.00,,,0.00,WUHU216HW,2013-04-04 16:48:00,
2013-04-04 17:53:00,45.4,30.5,30.22,SE,135,2.0,2.0,56,0.00,,,0.00,WUHU216HW,2013-04-04 16:53:00,
2013-04-04 17:58:00,45.4,31.0,30.22,ESE,113,1.3,2.0,57,0.00,,,0.00,WUHU216HW,2013-04-04 16:58:00,
2013-04-04 18:03:00,45.4,31.0,30.22,ESE,113,0.0,2.0,57,0.00,,,0.00,WUHU216HW,2013-04-04 17:03:00,
2013-04-04 18:09:00,45.2,30.8,30.22,East,90,0.0,1.3,57,0.00,,,0.00,WUHU216HW,2013-04-04 17:09:00,
2013-04-04 18:14:00,45.2,30.8,30.22,SE,135,1.3,1.3,57,0.00,,,0.00,WUHU216HW,2013-04-04 17:14:00,
2013-04-04 18:19:00,44.8,31.0,30.22,East,90,1.1,1.3,58,0.00,,,0.00,WUHU216HW,2013-04-04 17:19:00,
2013-04-04 18:24:00,44.8,31.0,30.23,ESE,113,0.4,1.3,58,0.00,,,0.00,WUHU216HW,2013-04-04 17:24:00,
2013-04-04 18:29:00,44.6,30.8,30.23,ESE,113,0.2,1.1,58,0.00,,,0.00,WUHU216HW,2013-04-04 17:29:00,
2013-04-04 18:34:00,44.5,30.6,30.22,SSW,203,0.7,0.7,58,0.00,,,0.00,WUHU216HW,2013-04-04 17:34:00,
2013-04-04 18:39:00,44.3,30.4,30.23,SE,135,0.4,0.7,58,0.00,,,0.00,WUHU216HW,2013-04-04 17:39:00,
2013-04-04 18:44:00,44.3,30.4,30.22,ESE,113,0.4,0.7,58,0.00,,,0.00,WUHU216HW,2013-04-04 17:44:00,
2013-04-04 18:49:00,44.1,30.2,30.22,SE,135,0.0,0.4,58,0.00,,,0.00,WUHU216HW,2013-04-04 17:49:00,
2013-04-04 18:54:00,43.9,30.1,30.22,ESE,113,0.4,0.7,58,0.00,,,0.00,WUHU216HW,2013-04-04 17:54:00,
2013-04-04 18:59:00,43.7,30.3,30.22,ESE,113,0.2,0.7,59,0.00,,,0.00,WUHU216HW,2013-04-04 17:59:00,
2013-04-04 19:04:00,43.6,30.2,30.23,ENE,68,0.4,0.4,59,0.00,,,0.00,WUHU216HW,2013-04-04 18:04:00,
2013-04-04 19:09:00,43.2,30.2,30.22,East,90,0.0,0.9,60,0.00,,,0.00,WUHU216HW,2013-04-04 18:09:00,
2013-04-04 19:14:00,42.8,30.2,30.22,East,90,0.0,0.9,61,0.00,,,0.00,WUHU216HW,2013-04-04 18:14:00,
2013-04-04 19:19:00,42.8,30.2,30.22,East,90,0.0,0.0,61,0.00,,,0.00,WUHU216HW,2013-04-04 18:19:00,
2013-04-04 19:24:00,42.7,30.9,30.22,ENE,68,0.0,0.0,63,0.00,,,0.00,WUHU216HW,2013-04-04 18:24:00,
2013-04-04 19:29:00,42.5,30.7,30.22,ENE,68,0.0,0.0,63,0.00,,,0.00,WUHU216HW,2013-04-04 18:29:00,
2013-04-04 19:35:00,42.1,30.4,30.23,ENE,68,0.0,0.0,63,0.00,,,0.00,WUHU216HW,2013-04-04 18:35:00,
2013-04-04 19:40:00,41.0,29.8,30.23,ENE,68,0.0,0.0,64,0.00,,,0.00,WUHU216HW,2013-04-04 18:40:00,
2013-04-04 19:45:00,40.9,30.3,30.23,East,90,1.1,1.1,66,0.00,,,0.00,WUHU216HW,2013-04-04 18:45:00,
2013-04-04 19:50:00,40.7,29.8,30.23,East,90,0.4,1.1,65,0.00,,,0.00,WUHU216HW,2013-04-04 18:50:00,
2013-04-04 19:55:00,40.5,29.6,30.23,East,90,0.0,1.1,65,0.00,,,0.00,WUHU216HW,2013-04-04 18:55:00,
2013-04-04 20:00:00,40.0,29.1,30.23,East,90,0.0,0.4,65,0.00,,,0.00,WUHU216HW,2013-04-04 19:00:00,
2013-04-04 20:05:00,39.1,28.5,30.23,East,90,0.0,0.0,66,0.00,,,0.00,WUHU216HW,2013-04-04 19:05:00,
2013-04-04 20:10:00,37.8,27.8,30.23,East,90,0.0,0.0,67,0.00,,,0.00,WUHU216HW,2013-04-04 19:10:00,
2013-04-04 20:15:00,37.6,27.6,30.23,East,90,0.0,0.0,67,0.00,,,0.00,WUHU216HW,2013-04-04 19:15:00,
2013-04-04 20:20:00,37.4,28.3,30.23,East,90,0.0,0.0,69,0.00,,,0.00,WUHU216HW,2013-04-04 19:20:00,
2013-04-04 20:25:00,38.5,30.0,30.23,East,90,0.0,0.0,71,0.00,,,0.00,WUHU216HW,2013-04-04 19:25:00,
2013-04-04 20:30:00,38.7,29.8,30.23,East,90,0.0,0.0,70,0.00,,,0.00,WUHU216HW,2013-04-04 19:30:00,
2013-04-04 20:35:00,38.7,29.8,30.23,East,90,0.0,0.0,70,0.00,,,0.00,WUHU216HW,2013-04-04 19:35:00,
2013-04-04 20:40:00,38.5,29.6,30.23,East,90,0.0,0.0,70,0.00,,,0.00,WUHU216HW,2013-04-04 19:40:00,
2013-04-04 20:45:00,38.5,29.6,30.23,East,90,0.0,0.0,70,0.00,,,0.00,WUHU216HW,2013-04-04 19:45:00,
2013-04-04 20:50:00,38.9,30.6,30.23,East,90,0.4,0.4,72,0.00,,,0.00,WUHU216HW,2013-04-04 19:50:00,
2013-04-04 20:55:00,39.2,30.6,30.23,East,90,0.4,0.4,71,0.00,,,0.00,WUHU216HW,2013-04-04 19:55:00,
2013-04-04 21:00:00,39.4,30.8,30.23,East,90,0.2,0.4,71,0.00,,,0.00,WUHU216HW,2013-04-04 20:00:00,
2013-04-04 21:05:00,39.8,31.4,30.23,East,90,0.0,0.4,72,0.00,,,0.00,WUHU216HW,2013-04-04 20:05:00,
2013-04-04 21:10:00,40.1,32.1,30.24,East,90,0.2,0.2,73,0.00,,,0.00,WUHU216HW,2013-04-04 20:10:00,
2013-04-04 21:15:00,40.3,31.7,30.24,East,90,0.0,0.2,71,0.00,,,0.00,WUHU216HW,2013-04-04 20:15:00,
2013-04-04 21:20:00,40.3,31.7,30.24,ENE,68,0.4,0.4,71,0.00,,,0.00,WUHU216HW,2013-04-04 20:20:00,
2013-04-04 21:25:00,40.7,32.1,30.24,ENE,68,0.0,0.7,71,0.00,,,0.00,WUHU216HW,2013-04-04 20:25:00,
2013-04-04 21:30:00,40.7,32.1,30.24,ENE,68,0.0,0.7,71,0.00,,,0.00,WUHU216HW,2013-04-04 20:30:00,
2013-04-04 21:35:00,40.5,31.9,30.24,ENE,68,0.0,0.0,71,0.00,,,0.00,WUHU216HW,2013-04-04 20:35:00,
2013-04-04 21:40:00,40.3,31.7,30.23,NE,45,0.4,0.4,71,0.00,,,0.00,WUHU216HW,2013-04-04 20:40:00,
2013-04-04 21:45:00,40.3,31.7,30.24,ENE,68,0.0,0.4,71,0.00,,,0.00,WUHU216HW,2013-04-04 20:45:00,
2013-04-04 21:50:00,40.3,31.7,30.23,ENE,68,0.4,0.4,71,0.00,,,0.00,WUHU216HW,2013-04-04 20:50:00,
2013-04-04 21:55:00,40.3,32.0,30.23,NE,45,0.0,0.4,72,0.00,,,0.00,WUHU216HW,2013-04-04 20:55:00,
2013-04-04 22:00:00,40.3,32.0,30.23,NE,45,0.0,0.2,72,0.00,,,0.00,WUHU216HW,2013-04-04 21:00:00,
2013-04-04 22:05:00,40.3,32.0,30.23,NE,45,0.0,0.0,72,0.00,,,0.00,WUHU216HW,2013-04-04 21:05:00,
2013-04-04 22:10:00,40.1,32.1,30.23,North,0,0.4,0.4,73,0.00,,,0.00,WUHU216HW,2013-04-04 21:10:00,
2013-04-04 22:15:00,40.1,32.1,30.23,North,0,0.4,0.4,73,0.00,,,0.00,WUHU216HW,2013-04-04 21:15:00,
2013-04-04 22:20:00,40.1,32.1,30.24,NNE,23,0.4,0.4,73,0.00,,,0.00,WUHU216HW,2013-04-04 21:20:00,
2013-04-04 22:25:00,40.1,32.5,30.23,NW,315,0.0,0.4,74,0.00,,,0.00,WUHU216HW,2013-04-04 21:25:00,
2013-04-04 22:30:00,40.1,32.5,30.23,NW,315,0.0,0.2,74,0.00,,,0.00,WUHU216HW,2013-04-04 21:30:00,
2013-04-04 22:35:00,40.1,32.5,30.23,SSW,203,0.0,0.0,74,0.00,,,0.00,WUHU216HW,2013-04-04 21:35:00,
2013-04-04 22:40:00,40.1,32.5,30.23,WNW,293,0.4,1.3,74,0.00,,,0.00,WUHU216HW,2013-04-04 21:40:00,
2013-04-04 22:45:00,40.1,32.5,30.23,NW,315,0.4,1.3,74,0.00,,,0.00,WUHU216HW,2013-04-04 21:45:00,
2013-04-04 22:50:00,40.0,32.3,30.23,WNW,293,0.2,0.4,74,0.00,,,0.00,WUHU216HW,2013-04-04 21:50:00,
2013-04-04 22:55:00,40.0,32.3,30.23,WNW,293,0.0,0.4,74,0.00,,,0.00,WUHU216HW,2013-04-04 21:55:00,
2013-04-04 23:00:00,40.0,32.3,30.23,NNW,338,0.4,0.4,74,0.00,,,0.00,WUHU216HW,2013-04-04 22:00:00,
2013-04-04 23:05:00,40.0,32.3,30.23,NW,315,1.1,1.1,74,0.00,,,0.00,WUHU216HW,2013-04-04 22:05:00,
2013-04-04 23:10:00,40.3,32.7,30.23,ENE,68,0.7,1.1,74,0.00,,,0.00,WUHU216HW,2013-04-04 22:10:00,
2013-04-04 23:15:00,40.5,32.9,30.23,SW,225,0.7,0.7,74,0.00,,,0.00,WUHU216HW,2013-04-04 22:15:00,
2013-04-04 23:20:00,40.5,32.9,30.23,ENE,68,1.6,1.6,74,0.00,,,0.00,WUHU216HW,2013-04-04 22:20:00,
2013-04-04 23:25:00,40.5,32.9,30.23,WSW,248,0.4,1.6,74,0.00,,,0.00,WUHU216HW,2013-04-04 22:25:00,
2013-04-04 23:30:00,40.5,32.9,30.24,North,0,0.7,1.6,74,0.00,,,0.00,WUHU216HW,2013-04-04 22:30:00,
2013-04-04 23:35:00,40.3,32.7,30.24,SE,135,0.2,2.0,74,0.00,,,0.00,WUHU216HW,2013-04-04 22:35:00,
2013-04-04 23:40:00,40.3,32.7,30.24,SE,135,0.2,2.0,74,0.00,,,0.00,WUHU216HW,2013-04-04 22:40:00,
2013-04-04 23:45:00,40.1,32.5,30.24,SE,135,0.2,0.2,74,0.00,,,0.00,WUHU216HW,2013-04-04 22:45:00,
2013-04-04 23:50:00,40.0,32.3,30.24,SE,135,0.0,0.2,74,0.00,,,0.00,WUHU216HW,2013-04-04 22:50:00,
2013-04-04 23:55:00,40.0,32.3,30.24,East,90,0.2,0.2,74,0.00,,,0.00,WUHU216HW,2013-04-04 22:55:00,